Regional Weather Roundup
Issued by NWS

Home | Current Version | Previous Version | Graphics & Text | Print | Product List | Glossary On
Versions: 1 2 3 4 5 6 7 8 9 10 11 12 13 14 15 16 17 18 19 20 21 22 23 24 25 26 27 28 29 30 31 32 33 34 35 36 37 38 39 40 41 42 43 44 45 46 47 48 49 50
000
ASUS43 KDMX 221507
RWRIA

WEATHER ROUNDUP FOR IOWA
NATIONAL WEATHER SERVICE DES MOINES IA
1000 AM CDT FRI AUG 22 2014

NOTE: "FAIR" INDICATES FEW OR NO CLOUDS BELOW 12,000 FEET WITH NO
SIGNIFICANT WEATHER AND/OR OBSTRUCTIONS TO VISIBILITY.

* - THESE STATIONS ARE NOT NWS STATIONS...THUS NOT UNDER NWS
QUALITY CONTROL.  THEY ALSO DO NOT REPORT WEATHER SUCH
AS PRECIPITATION OR FOG.

IAZ001>003-012>014-020>022-031>034-043>046-221600-
   NORTHWEST IOWA

CITY           SKY/WX    TMP DP  RH WIND       PRES   REMARKS
CARROLL *      SUNNY     81  73  78 CALM      29.92S HX  85
CHEROKEE *     SUNNY     79  73  83 NE6       29.94R HX  82
DENISON *      SUNNY     81  73  78 CALM      29.91S HX  85
LE MARS *      SUNNY     79  73  83 NE5       29.94S HX  82
ORANGE CITY *  SUNNY     81  72  74 E6        29.95R HX  84
SHELDON *      CLOUDY    73  73 100 NE9       29.95R
SIOUX CITY     SUNNY     82  72  71 N3        29.93R HX  87
SPENCER        CLOUDY    75  72  90 NE10      29.95R
STORM LAKE *   SUNNY     77  77 100 NE8       29.96R
$$

IAZ055>058-069>071-079>083-090>094-221600-
   SOUTHWEST IOWA

CITY           SKY/WX    TMP DP  RH WIND       PRES   REMARKS
ATLANTIC *     SUNNY     77  73  88 S9        29.93R
AUDUBON *      SUNNY     81  75  83 S5        29.95R HX  86
CLARINDA *     SUNNY     81  75  83 S3        29.94S HX  86
COUNCIL BLFS * SUNNY     79  77  94 VRB3      29.92R HX  83
CRESTON *      MOSUNNY   79  75  89 S12G17    29.95R HX  82
HARLAN  *      SUNNY     79  73  83 CALM      29.96S HX  82
LAMONI         PTSUNNY   80  73  79 SW13      29.94R HX  84
RED OAK *      SUNNY     81  75  83 S12       29.93S HX  86
SHENANDOAH *   SUNNY     81  75  83 SW6       29.93F HX  86
$$

IAZ047>049-059>061-072>074-084-221600-
   CENTRAL IOWA

CITY           SKY/WX    TMP DP  RH WIND       PRES   REMARKS
AMES           SUNNY     79  73  82 S7        29.93S HX  82
ANKENY *       SUNNY     79  72  78 CALM      29.93R HX  82
CHARITON *     SUNNY     81  75  83 S12       29.94R HX  86
DES MOINES     PTSUNNY   81  70  69 E3        29.93R HX  84
GRINNELL*      CLOUDY    79  72  78 SW6       29.94S HX  82
KNOXVILLE *    MOSUNNY   79  73  83 SW5       29.93R HX  82
MARSHALLTOWN   MOSUNNY   80  72  76 SW7       29.93S HX  84
PELLA *        MOSUNNY   82  73  74 CALM      29.94S HX  88
PERRY *          N/A     79  73  83 SE3       29.94R HX  82
$$

IAZ004>006-015-016-023>025-035-036-221600-
   NORTH CENTRAL IOWA

CITY           SKY/WX    TMP DP  RH WIND       PRES   REMARKS
ALGONA *       MOSUNNY   77  73  88 NE10      29.95R
CLARION *      PTSUNNY   81  77  89 CALM      29.93R HX  88
ESTHERVILLE    CLOUDY    71  71 100 N10       29.95S FOG
FORT DODGE *   CLOUDY    75  73  94 SE3       29.94S
MASON CITY     MOSUNNY   77  72  84 N13       29.95S
FOREST CITY *  MOSUNNY   75  73  94 N6        29.95S
IOWA FALLS *   CLOUDY    77  73  88 S5        29.95R
$$

IAZ007>011-017>019-026>030-037>042-050>054-066-221600-
   NORTHEAST IOWA

CITY           SKY/WX    TMP DP  RH WIND       PRES   REMARKS
CEDAR RAPIDS   CLOUDY    78  74  87 CALM      29.93R HX  81
CHARLES CITY * CLOUDY    75  75 100 N5        29.95R FOG
CLINTON *      CLOUDY    72  68  88 S8        29.96R
DECORAH *      CLOUDY    75  73  94 CALM      29.94R FOG
DUBUQUE        CLOUDY    75  75 100 CALM      29.94S
MONTICELLO *   CLOUDY    75  75 100 SW3       29.94R FOG
OELWEIN *      MOSUNNY   77  77 100 S5        29.95R FOG
WATERLOO       CLOUDY    77  74  90 S5        29.92S FOG
$$

IAZ064-065-067-068-078-221600-
   EAST CENTRAL IOWA

CITY           SKY/WX    TMP DP  RH WIND       PRES   REMARKS
DAVENPORT      CLOUDY    71  68  90 S7        29.96R
IOWA CITY      PTSUNNY   77  74  90 NW6       29.94R
MT. PLEASANT * CLOUDY    79  72  78 SE5       29.95R HX  82
MUSCATINE *    SUNNY     75  73  94 S7        29.94R
QUAD CITIES    CLOUDY    73  70  90 CALM      29.95R
$$

IAZ062-063-075>077-085>089-095>099-221600-
   SOUTHEAST IOWA

CITY           SKY/WX    TMP DP  RH WIND       PRES   REMARKS
BURLINGTON     CLOUDY    78  74  87 CALM      29.96R HX  81
FAIRFIELD *    SUNNY     79  72  78 SE3       29.94S HX  82
FORT MADISON * MOSUNNY   77  75  94 E3        29.96R
KEOKUK *       MOSUNNY   77  75  94 E3        29.95R
OSKALOOSA *      N/A     79  72  78 CALM      29.94R HX  82
CENTERVILLE *  SUNNY     82  77  83 S9        29.95S HX  91
OTTUMWA        PTSUNNY   79  68  69 CALM      29.92S HX  81
WASHINGTON *   SUNNY     79  75  89 S6        29.94R HX  82
$$

ABBREVIATIONS USED IN REMARKS
   TC - TEMPERATURES IN CELSIUS
  WCI - WIND CHILL INDEX
   HX - HEAT INDEX
  VSB - VISIBILITY
$$




USA.gov is the U.S. government's official web portal to all federal, state and local government web resources and services.